Regional Weather Roundup
Issued by NWS

Home | Current Version | Previous Version | Text Only | Print | Product List | Glossary Off
Versions: 1 2 3 4 5 6 7 8 9 10 11 12 13 14 15 16 17 18 19 20 21 22 23 24 25 26 27 28 29 30 31 32 33 34 35 36 37 38 39 40 41 42 43 44 45 46 47 48 49 50

000
ASUS43 KDTX 171010
RWRMI
MICHIGAN HOURLY REGIONAL WEATHER ROUNDUP
NATIONAL WEATHER SERVICE DETROIT/PONTIAC MI
600 AM EDT THU APR 17 2014

NOTE: "FAIR" INDICATES FEW OR NO CLOUDS BELOW 12,000 FEET WITH NO
SIGNIFICANT WEATHER AND/OR OBSTRUCTION TO VISIBILITY.

MIZ047>049-052>055-059>063-066>070-074>076-081>083-171100-
SOUTHEAST LOWER MICHIGAN

CITY           SKY/WX    TMP DP  RH WIND       PRES   REMARKS
ADRIAN         PTCLDY    31  28  89 E5        30.31F WCI  26
ALMA           CLOUDY    32  23  69 E7        30.32F WCI  26
ANN ARBOR      PTCLDY    32  25  75 E6        30.32S WCI  26
BAD AXE        MOCLDY    32  22  65 SE6       30.39S WCI  27
CARO           MOCLDY    33  20  59 E6        30.36F WCI  27
DETROIT CITY   PTCLDY    36  26  67 SE7       30.36R WCI  30
DETROIT        CLOUDY    33  26  75 NE3       30.35F
FLINT          PTCLDY    32  24  72 E8        30.33F WCI  25
GROSSE ILE     PTCLDY    34  28  80 E5        30.33S WCI  30
HILLSDALE      MOCLDY    34  25  68 SE8       30.27S WCI  28
HOWELL         MOCLDY    32  22  67 E12       30.31F WCI  23

CITY           SKY/WX    TMP DP  RH WIND       PRES   REMARKS
JACKSON        CLOUDY    32  28  85 SE12      30.29F WCI  23
LAMBERTVILLE   PTCLDY    37  23  56 E5        30.32S WCI  34
LANSING        CLOUDY    34  24  67 SE12      30.30F WCI  25
LAPEER         FAIR      29  22  74 E3        30.35F
MASON          CLOUDY    33  27  79 SE6       30.30S WCI  27
MONROE         PTCLDY    37  30  75 CALM      30.32S
MT. CLEMENS    MOCLDY    34  26  74 SE10      30.35R WCI  26
PONTIAC        MOCLDY    31  24  75 E8        30.32S WCI  23
PORT HOPE        N/A     34  24  67 SE13      30.39S WCI  25
PORT HURON     PTCLDY    32  23  69 E12       30.36F WCI  23
TRI CITIES     CLOUDY    33  21  61 E9        30.35F WCI  25
TROY           PTCLDY    32  26  77 CALM      30.37R
SAGINAW HB     MOCLDY    32  23  69 E7        30.35F WCI  26
YPSILANTI      PTCLDY    32  24  72 NE6       30.34S WCI  26
$$
MIZ043>046-050>051-056>058-064>065-071>073-077>080-171100-
SOUTHWEST LOWER MICHIGAN

CITY           SKY/WX    TMP DP  RH WIND       PRES   REMARKS
BATTLE CREEK   CLOUDY    35  25  66 SE8       30.26F WCI  29
BENTON HARBOR  PTCLDY    36  26  67 SE12      30.21S WCI  28
BIG RAPIDS     CLOUDY    34  23  64 SE10      30.27R WCI  26
COLDWATER      MOCLDY    35  24  62 SE12      30.26F WCI  27
FREMONT        FAIR      36  22  58 SE9       30.24S WCI  29
HOLLAND        PTCLDY    38  26  62 SE13      30.23S WCI  30
GRAND RAPIDS   CLOUDY    36  26  67 SE13      30.26F WCI  27
IONIA          FAIR      32  25  74 E9        30.28F WCI  24
KALAMAZOO      CLOUDY    37  23  56 SE7       30.25S WCI  32
LUDINGTON      CLOUDY    37  25  61 SE16      30.21F WCI  27
MARSHALL       CLOUDY    34  25  70 SE8       30.27S WCI  27
MOUNT PLEASANT CLOUDY    33  21  63 E8        30.31F WCI  25
MUSKEGON       MOCLDY    37  24  59 SE13      30.22F WCI  29
SOUTH HAVEN    PTCLDY    37  25  61 SE10G16   30.22S WCI  30
$$
MIZ016>042-171100-
NORTHERN LOWER MICHIGAN

CITY           SKY/WX    TMP DP  RH WIND       PRES   REMARKS
ALPENA         CLOUDY    33  25  72 SE12      30.40F WCI  24
BEAVER ISLAND  CLOUDY    32  28  85 E16G22    30.29F WCI  21
BELLAIRE       CLOUDY    37  19  48 SE8G18    30.29S WCI  31
CADILLAC       CLOUDY    31  21  65 SE12      30.25S WCI  22
CHARLEVOIX     CLOUDY    36  22  57 E12       30.32S WCI  28
FRANKFORT      CLOUDY    37  22  54 SE13G26   30.21F WCI  29
GAYLORD        CLOUDY    31  19  61 SE15G23   30.29F WCI  20
GRAYLING       CLOUDY    33  20  60 E12       30.31F WCI  24
HARBOR SPRINGS CLOUDY    35  23  60 E10G16    30.31F WCI  28
HOUGHTON LAKE  CLOUDY    32  19  58 SE14      30.31F WCI  22
MANISTEE       CLOUDY    37  19  48 SE9G18    30.22F WCI  31
OSCODA         CLOUDY    35  27  72 SE9G16    30.40S WCI  28
PELLSTON       CLOUDY    34  23  64 E9        30.34F WCI  27
ROGERS CITY    CLOUDY    33  27  79 SE9       30.40F WCI  25
TRAVERSE CITY  CLOUDY    37  19  48 SE10G18   30.25F WCI  30
$$
MIZ007>008-015-171100-
EASTERN UPPER MICHIGAN

CITY           SKY/WX    TMP DP  RH WIND       PRES   REMARKS
KINROSS        CLOUDY    28  27  93 E18       30.39S VSB 1   WCI  16
MACKINAC ISLAN LGT SNOW  31  31 100 E13G21    30.35F WCI  21
NEWBERRY       CLOUDY    29  28  94 E10G17    30.32F WCI  20
S. S. MARIE    LGT SNOW  28  26  92 E10       30.40F FOG     WCI  19
MUNISING         N/A     33  27  78 SE9G20    30.25S WCI  25
$$
MIZ004>006-011>014-085-171100-
CENTRAL UPPER MICHIGAN

CITY           SKY/WX    TMP DP  RH WIND       PRES   REMARKS
MANISTIQUE     CLOUDY    31  28  92 MISG      30.27S
ESCANABA       CLOUDY    32  27  80 E15       30.21R WCI  22
MENOMINEE      CLOUDY    36  27  69 S15       30.15S WCI  26
SAWYER-GWINN   CLOUDY    30  28  92 SE10G18   30.19F WCI  21
$$
MIZ001>003-009>011-084-171100-
WESTERN UPPER MICHIGAN

CITY           SKY/WX    TMP DP  RH WIND       PRES   REMARKS
IRON MOUNTAIN  LGT SNOW  30  28  92 E9        30.14S VSB 3/4 WCI  22
HOUGHTON       SNOW      29  26  89 E20G30    30.17F VSB 1/2 WCI  16
COPPER HARBOR    N/A     30  27  88 S12G23    30.24F WCI  20
IRONWOOD       CLOUDY    30  27  86 NE3       30.03R
$$

ABBREVIATIONS USED IN REMARKS
   TC - TEMPERATURE IN CELSIUS
  WCI - WIND CHILL INDEX
   HX - HEAT INDEX
  VSB - VISIBILITY




USA.gov is the U.S. government's official web portal to all federal, state and local government web resources and services.